Time,TemperatureF,DewpointF,PressureIn,WindDirection,WindDirectionDegrees,WindSpeedMPH,WindSpeedGustMPH,Humidity,HourlyPrecipIn,Conditions,Clouds,dailyrainin,SoftwareType,DateUTC
2013-03-29 00:00:00,33.3,5.9,29.29,SSE,166,4.0,4.0,31,0.00,,,0.00,VWS V13.01,2013-03-29 04:00:00,
2013-03-29 00:05:00,32.9,5.6,29.29,SSE,166,4.0,4.0,31,0.00,,,0.00,VWS V13.01,2013-03-29 04:05:00,
2013-03-29 00:10:00,32.7,5.4,29.29,SSE,166,4.0,4.0,31,0.00,,,0.00,VWS V13.01,2013-03-29 04:10:00,
2013-03-29 00:15:00,32.5,6.0,29.29,SSE,166,4.0,4.0,32,0.00,,,0.00,VWS V13.01,2013-03-29 04:15:00,
2013-03-29 00:20:00,32.7,8.1,29.29,SSE,166,4.0,4.0,35,0.00,,,0.00,VWS V13.01,2013-03-29 04:20:00,
2013-03-29 00:25:00,32.7,7.5,29.29,SSE,166,4.0,4.0,34,0.00,,,0.00,VWS V13.01,2013-03-29 04:25:00,
2013-03-29 00:30:00,32.5,7.3,29.29,SSE,166,4.0,4.0,34,0.00,,,0.00,VWS V13.01,2013-03-29 04:30:00,
2013-03-29 00:35:00,32.4,7.1,29.29,SSE,166,4.0,4.0,34,0.00,,,0.00,VWS V13.01,2013-03-29 04:35:00,
2013-03-29 00:40:00,32.2,7.0,29.29,SSE,166,4.0,4.0,34,0.00,,,0.00,VWS V13.01,2013-03-29 04:40:00,
2013-03-29 00:45:00,32.2,7.6,29.29,SSE,166,4.0,4.0,35,0.00,,,0.00,VWS V13.01,2013-03-29 04:45:00,
2013-03-29 00:50:00,32.0,7.5,29.29,SSE,166,4.0,4.0,35,0.00,,,0.00,VWS V13.01,2013-03-29 04:50:00,
2013-03-29 00:55:00,31.8,7.3,29.29,SSE,166,4.0,4.0,35,0.00,,,0.00,VWS V13.01,2013-03-29 04:55:00,
2013-03-29 01:00:00,31.5,7.0,29.29,SSE,166,4.0,4.0,35,0.00,,,0.00,VWS V13.01,2013-03-29 05:00:00,
2013-03-29 01:05:00,31.5,7.6,29.29,SSE,166,4.0,4.0,36,0.00,,,0.00,VWS V13.01,2013-03-29 05:05:00,
2013-03-29 01:10:00,31.6,7.8,29.29,SSE,166,4.0,4.0,36,0.00,,,0.00,VWS V13.01,2013-03-29 05:10:00,
2013-03-29 01:15:00,31.6,7.8,29.29,SSE,166,4.0,4.0,36,0.00,,,0.00,VWS V13.01,2013-03-29 05:15:00,
2013-03-29 01:20:00,31.5,7.6,29.29,SSE,166,4.0,4.0,36,0.00,,,0.00,VWS V13.01,2013-03-29 05:20:00,
2013-03-29 01:25:00,31.3,7.4,29.29,SSE,166,4.0,4.0,36,0.00,,,0.00,VWS V13.01,2013-03-29 05:25:00,
2013-03-29 01:30:00,31.1,7.9,29.29,SSE,166,4.0,4.0,37,0.00,,,0.00,VWS V13.01,2013-03-29 05:30:00,
2013-03-29 01:35:00,30.9,7.1,29.29,SSE,166,4.0,4.0,36,0.00,,,0.00,VWS V13.01,2013-03-29 05:35:00,
2013-03-29 01:40:00,30.7,7.6,29.29,SSE,166,4.0,4.0,37,0.00,,,0.00,VWS V13.01,2013-03-29 05:40:00,
2013-03-29 01:45:00,30.6,7.4,29.29,SSE,166,4.0,4.0,37,0.00,,,0.00,VWS V13.01,2013-03-29 05:45:00,
2013-03-29 01:50:00,30.6,8.0,29.29,SSE,166,4.0,4.0,38,0.00,,,0.00,VWS V13.01,2013-03-29 05:50:00,
2013-03-29 01:55:00,30.4,7.8,29.29,SSE,166,4.0,4.0,38,0.00,,,0.00,VWS V13.01,2013-03-29 05:55:00,
2013-03-29 02:00:00,30.4,7.8,29.29,SSE,166,4.0,4.0,38,0.00,,,0.00,VWS V13.01,2013-03-29 06:00:00,
2013-03-29 02:05:00,30.2,8.2,29.29,SSE,166,4.0,4.0,39,0.00,,,0.00,VWS V13.01,2013-03-29 06:05:00,
2013-03-29 02:10:00,30.2,8.2,29.29,SSE,166,4.0,4.0,39,0.00,,,0.00,VWS V13.01,2013-03-29 06:10:00,
2013-03-29 02:16:00,30.0,8.1,29.29,SSE,166,4.0,4.0,39,0.00,,,0.00,VWS V13.01,2013-03-29 06:16:00,
2013-03-29 02:21:00,30.0,8.6,29.29,SSE,166,4.0,4.0,40,0.00,,,0.00,VWS V13.01,2013-03-29 06:21:00,
2013-03-29 02:26:00,30.0,8.6,29.29,SSE,166,4.0,4.0,40,0.00,,,0.00,VWS V13.01,2013-03-29 06:26:00,
2013-03-29 02:36:00,29.8,8.5,29.29,SSE,166,4.0,4.0,40,0.00,,,0.00,VWS V13.01,2013-03-29 06:36:00,
2013-03-29 02:41:00,29.8,8.5,29.29,SSE,166,4.0,4.0,40,0.00,,,0.00,VWS V13.01,2013-03-29 06:41:00,
2013-03-29 02:46:00,29.7,8.9,29.29,SSE,166,4.0,4.0,41,0.00,,,0.00,VWS V13.01,2013-03-29 06:46:00,
2013-03-29 02:51:00,29.7,8.9,29.29,SSE,166,4.0,4.0,41,0.00,,,0.00,VWS V13.01,2013-03-29 06:51:00,
2013-03-29 02:56:00,29.7,8.9,29.29,SSE,166,4.0,4.0,41,0.00,,,0.00,VWS V13.01,2013-03-29 06:56:00,
2013-03-29 03:01:00,29.5,8.7,29.29,SSE,166,4.0,4.0,41,0.00,,,0.00,VWS V13.01,2013-03-29 07:01:00,
2013-03-29 03:06:00,29.3,8.5,29.29,SSE,166,4.0,4.0,41,0.00,,,0.00,VWS V13.01,2013-03-29 07:06:00,
2013-03-29 03:13:00,29.1,8.4,29.29,SSE,166,4.0,4.0,41,0.00,,,0.00,VWS V13.01,2013-03-29 07:13:00,
2013-03-29 03:18:00,29.3,8.5,29.29,SSE,166,4.0,4.0,41,0.00,,,0.00,VWS V13.01,2013-03-29 07:18:00,
2013-03-29 03:23:00,29.1,8.4,29.29,SSE,166,4.0,4.0,41,0.00,,,0.00,VWS V13.01,2013-03-29 07:23:00,
2013-03-29 03:28:00,29.1,8.4,29.29,SSE,166,4.0,4.0,41,0.00,,,0.00,VWS V13.01,2013-03-29 07:28:00,
2013-03-29 03:33:00,28.9,8.2,29.29,SSE,166,4.0,4.0,41,0.00,,,0.00,VWS V13.01,2013-03-29 07:33:00,
2013-03-29 03:38:00,28.9,8.2,29.29,SSE,166,4.0,4.0,41,0.00,,,0.00,VWS V13.01,2013-03-29 07:38:00,
2013-03-29 03:43:00,28.6,7.9,29.29,SSE,166,4.0,4.0,41,0.00,,,0.00,VWS V13.01,2013-03-29 07:43:00,
2013-03-29 03:48:00,28.8,8.6,29.29,SSE,166,4.0,4.0,42,0.00,,,0.00,VWS V13.01,2013-03-29 07:48:00,
2013-03-29 03:53:00,28.6,8.4,29.29,SSE,166,4.0,4.0,42,0.00,,,0.00,VWS V13.01,2013-03-29 07:53:00,
2013-03-29 03:58:00,28.6,8.4,29.29,SSE,166,4.0,4.0,42,0.00,,,0.00,VWS V13.01,2013-03-29 07:58:00,
2013-03-29 04:03:00,28.6,8.4,29.29,SSE,166,4.0,4.0,42,0.00,,,0.00,VWS V13.01,2013-03-29 08:03:00,
2013-03-29 04:08:00,28.8,8.6,29.29,SSE,166,4.0,4.0,42,0.00,,,0.00,VWS V13.01,2013-03-29 08:08:00,
2013-03-29 04:13:00,28.6,8.4,29.29,SSE,166,4.0,4.0,42,0.00,,,0.00,VWS V13.01,2013-03-29 08:13:00,
2013-03-29 04:18:00,28.6,8.9,29.29,SSE,166,4.0,4.0,43,0.00,,,0.00,VWS V13.01,2013-03-29 08:18:00,
2013-03-29 04:23:00,28.8,9.1,29.29,SSE,166,4.0,4.0,43,0.00,,,0.00,VWS V13.01,2013-03-29 08:23:00,
2013-03-29 04:28:00,28.8,9.6,29.29,SSE,166,4.0,4.0,44,0.00,,,0.00,VWS V13.01,2013-03-29 08:28:00,
2013-03-29 04:33:00,28.8,9.6,29.29,SSE,166,4.0,4.0,44,0.00,,,0.00,VWS V13.01,2013-03-29 08:33:00,
2013-03-29 04:38:00,28.9,9.8,29.29,SSE,166,4.0,4.0,44,0.00,,,0.00,VWS V13.01,2013-03-29 08:38:00,
2013-03-29 04:43:00,28.9,9.8,29.29,SSE,166,4.0,4.0,44,0.00,,,0.00,VWS V13.01,2013-03-29 08:43:00,
2013-03-29 04:48:00,28.9,9.8,29.29,SSE,166,4.0,4.0,44,0.00,,,0.00,VWS V13.01,2013-03-29 08:48:00,
2013-03-29 04:53:00,28.9,9.8,29.29,SSE,166,4.0,4.0,44,0.00,,,0.00,VWS V13.01,2013-03-29 08:53:00,
2013-03-29 04:58:00,28.9,10.3,29.29,SSE,166,4.0,4.0,45,0.00,,,0.00,VWS V13.01,2013-03-29 08:58:00,
2013-03-29 05:03:00,28.9,10.3,29.29,SSE,166,4.0,4.0,45,0.00,,,0.00,VWS V13.01,2013-03-29 09:03:00,
2013-03-29 05:08:00,28.6,9.4,29.29,SSE,166,4.0,4.0,44,0.00,,,0.00,VWS V13.01,2013-03-29 09:08:00,
2013-03-29 05:13:00,28.6,9.4,29.29,SSE,166,4.0,4.0,44,0.00,,,0.00,VWS V13.01,2013-03-29 09:13:00,
2013-03-29 05:18:00,28.6,9.9,29.29,SSE,166,4.0,4.0,45,0.00,,,0.00,VWS V13.01,2013-03-29 09:18:00,
2013-03-29 05:23:00,28.6,9.9,29.29,SSE,166,4.0,4.0,45,0.00,,,0.00,VWS V13.01,2013-03-29 09:23:00,
2013-03-29 05:28:00,28.6,9.9,29.29,SSE,166,4.0,4.0,45,0.00,,,0.00,VWS V13.01,2013-03-29 09:28:00,
2013-03-29 05:33:00,28.4,9.8,29.29,SSE,166,4.0,4.0,45,0.00,,,0.00,VWS V13.01,2013-03-29 09:33:00,
2013-03-29 05:38:00,28.4,9.8,29.29,SSE,166,4.0,4.0,45,0.00,,,0.00,VWS V13.01,2013-03-29 09:38:00,
2013-03-29 05:43:00,28.6,9.9,29.29,SSE,166,4.0,4.0,45,0.00,,,0.00,VWS V13.01,2013-03-29 09:43:00,
2013-03-29 05:48:00,28.6,10.4,29.29,SSE,166,4.0,4.0,46,0.00,,,0.00,VWS V13.01,2013-03-29 09:48:00,
2013-03-29 05:53:00,28.6,9.9,29.29,SSE,166,4.0,4.0,45,0.00,,,0.00,VWS V13.01,2013-03-29 09:53:00,
2013-03-29 05:58:00,28.4,10.3,29.29,SSE,166,4.0,4.0,46,0.00,,,0.00,VWS V13.01,2013-03-29 09:58:00,
2013-03-29 06:03:00,28.6,10.4,29.29,SSE,166,4.0,4.0,46,0.00,,,0.00,VWS V13.01,2013-03-29 10:03:00,
2013-03-29 06:08:00,28.6,10.4,29.29,SSE,166,4.0,4.0,46,0.00,,,0.00,VWS V13.01,2013-03-29 10:08:00,
2013-03-29 06:13:00,28.6,10.4,29.29,SSE,166,4.0,4.0,46,0.00,,,0.00,VWS V13.01,2013-03-29 10:13:00,
2013-03-29 06:18:00,28.6,10.4,29.29,SSE,166,4.0,4.0,46,0.00,,,0.00,VWS V13.01,2013-03-29 10:18:00,
2013-03-29 06:23:00,28.4,10.3,29.29,SSE,166,4.0,4.0,46,0.00,,,0.00,VWS V13.01,2013-03-29 10:23:00,
2013-03-29 06:28:00,28.2,10.1,29.29,SSE,166,4.0,4.0,46,0.00,,,0.00,VWS V13.01,2013-03-29 10:28:00,
2013-03-29 06:33:00,28.0,9.9,29.29,SSE,166,4.0,4.0,46,0.00,,,0.00,VWS V13.01,2013-03-29 10:33:00,
2013-03-29 06:38:00,28.2,10.6,29.29,SSE,166,4.0,4.0,47,0.00,,,0.00,VWS V13.01,2013-03-29 10:38:00,
2013-03-29 06:43:00,28.0,10.4,29.29,SSE,166,4.0,4.0,47,0.00,,,0.00,VWS V13.01,2013-03-29 10:43:00,
2013-03-29 06:48:00,28.0,10.4,29.29,SSE,166,4.0,4.0,47,0.00,,,0.00,VWS V13.01,2013-03-29 10:48:00,
2013-03-29 06:53:00,27.9,10.3,29.29,SSE,166,4.0,4.0,47,0.00,,,0.00,VWS V13.01,2013-03-29 10:53:00,
2013-03-29 06:58:00,27.9,10.3,29.29,SSE,166,4.0,4.0,47,0.00,,,0.00,VWS V13.01,2013-03-29 10:58:00,
2013-03-29 07:03:00,27.9,10.3,29.29,SSE,166,4.0,4.0,47,0.00,,,0.00,VWS V13.01,2013-03-29 11:03:00,
2013-03-29 07:08:00,27.9,10.3,29.29,SSE,166,4.0,4.0,47,0.00,,,0.00,VWS V13.01,2013-03-29 11:08:00,
2013-03-29 07:13:00,28.0,10.4,29.29,SSE,166,4.0,4.0,47,0.00,,,0.00,VWS V13.01,2013-03-29 11:13:00,
2013-03-29 07:18:00,28.0,10.4,29.29,SSE,166,4.0,4.0,47,0.00,,,0.00,VWS V13.01,2013-03-29 11:18:00,
2013-03-29 07:23:00,27.9,10.3,29.29,SSE,166,4.0,4.0,47,0.00,,,0.00,VWS V13.01,2013-03-29 11:23:00,
2013-03-29 07:28:00,27.9,10.3,29.29,SSE,166,4.0,4.0,47,0.00,,,0.00,VWS V13.01,2013-03-29 11:28:00,
2013-03-29 07:33:00,27.9,10.3,29.29,SSE,166,4.0,4.0,47,0.00,,,0.00,VWS V13.01,2013-03-29 11:33:00,
2013-03-29 07:38:00,27.9,10.3,29.29,SSE,166,4.0,4.0,47,0.00,,,0.00,VWS V13.01,2013-03-29 11:38:00,
2013-03-29 07:43:00,27.9,10.7,29.29,SSE,166,4.0,4.0,48,0.00,,,0.00,VWS V13.01,2013-03-29 11:43:00,
2013-03-29 07:48:00,28.0,11.4,29.29,SSE,166,4.0,4.0,49,0.00,,,0.00,VWS V13.01,2013-03-29 11:48:00,
2013-03-29 07:53:00,28.4,11.7,29.29,SSE,166,4.0,4.0,49,0.00,,,0.00,VWS V13.01,2013-03-29 11:53:00,
2013-03-29 07:58:00,28.6,12.3,29.29,SSE,166,4.0,4.0,50,0.00,,,0.00,VWS V13.01,2013-03-29 11:58:00,
2013-03-29 08:03:00,28.8,12.5,29.29,SSE,166,4.0,4.0,50,0.00,,,0.00,VWS V13.01,2013-03-29 12:03:00,
2013-03-29 08:08:00,28.9,12.6,29.29,SSE,166,4.0,4.0,50,0.00,,,0.00,VWS V13.01,2013-03-29 12:08:00,
2013-03-29 08:13:00,29.3,12.5,29.29,SSE,166,4.0,4.0,49,0.00,,,0.00,VWS V13.01,2013-03-29 12:13:00,
2013-03-29 08:18:00,29.7,12.9,29.29,SSE,166,4.0,4.0,49,0.00,,,0.00,VWS V13.01,2013-03-29 12:18:00,
2013-03-29 08:23:00,30.0,13.2,29.29,SSE,166,4.0,4.0,49,0.00,,,0.00,VWS V13.01,2013-03-29 12:23:00,
2013-03-29 08:28:00,30.6,13.7,29.29,SSE,166,4.0,4.0,49,0.00,,,0.00,VWS V13.01,2013-03-29 12:28:00,
2013-03-29 08:33:00,31.1,14.2,29.29,SSE,166,4.0,4.0,49,0.00,,,0.00,VWS V13.01,2013-03-29 12:33:00,
2013-03-29 08:38:00,32.2,15.6,29.29,SSE,166,4.0,4.0,50,0.00,,,0.00,VWS V13.01,2013-03-29 12:38:00,
2013-03-29 08:43:00,33.1,16.5,29.29,SSE,166,4.0,4.0,50,0.00,,,0.00,VWS V13.01,2013-03-29 12:43:00,
2013-03-29 08:48:00,33.8,16.7,29.29,SSE,166,4.0,4.0,49,0.00,,,0.00,VWS V13.01,2013-03-29 12:48:00,
2013-03-29 08:54:00,33.8,15.2,29.29,SSE,166,4.0,4.0,46,0.00,,,0.00,VWS V13.01,2013-03-29 12:54:00,
2013-03-29 08:59:00,33.4,13.9,29.29,SSE,166,4.0,4.0,44,0.00,,,0.00,VWS V13.01,2013-03-29 12:59:00,
2013-03-29 09:04:00,33.4,13.9,29.29,SSE,166,4.0,4.0,44,0.00,,,0.00,VWS V13.01,2013-03-29 13:04:00,
2013-03-29 09:09:00,33.4,13.9,29.29,SSE,166,4.0,4.0,44,0.00,,,0.00,VWS V13.01,2013-03-29 13:09:00,
2013-03-29 09:14:00,33.3,12.7,29.29,SSE,166,4.0,4.0,42,0.00,,,0.00,VWS V13.01,2013-03-29 13:14:00,
2013-03-29 09:19:00,33.3,12.1,29.29,SSE,166,4.0,4.0,41,0.00,,,0.00,VWS V13.01,2013-03-29 13:19:00,
2013-03-29 09:24:00,33.6,12.4,29.29,SSE,166,4.0,4.0,41,0.00,,,0.00,VWS V13.01,2013-03-29 13:24:00,
2013-03-29 09:29:00,33.8,12.1,29.29,SSE,166,4.0,4.0,40,0.00,,,0.00,VWS V13.01,2013-03-29 13:29:00,
2013-03-29 09:34:00,34.3,12.5,29.29,SSE,166,4.0,4.0,40,0.00,,,0.00,VWS V13.01,2013-03-29 13:34:00,
2013-03-29 09:39:00,34.5,12.7,29.29,SSE,166,4.0,4.0,40,0.00,,,0.00,VWS V13.01,2013-03-29 13:39:00,
2013-03-29 09:44:00,34.9,12.4,29.29,SSE,166,4.0,4.0,39,0.00,,,0.00,VWS V13.01,2013-03-29 13:44:00,
2013-03-29 09:49:00,35.1,11.4,29.29,SSE,166,4.0,4.0,37,0.00,,,0.00,VWS V13.01,2013-03-29 13:49:00,
2013-03-29 09:54:00,35.6,10.7,29.29,SSE,166,4.0,4.0,35,0.00,,,0.00,VWS V13.01,2013-03-29 13:54:00,
2013-03-29 09:59:00,35.8,8.8,29.29,SSE,166,4.0,4.0,32,0.00,,,0.00,VWS V13.01,2013-03-29 13:59:00,
2013-03-29 10:04:00,36.5,8.8,29.29,SSE,166,4.0,4.0,31,0.00,,,0.00,VWS V13.01,2013-03-29 14:04:00,
2013-03-29 10:09:00,37.4,8.1,29.29,SSE,166,4.0,4.0,29,0.00,,,0.00,VWS V13.01,2013-03-29 14:09:00,
2013-03-29 10:14:00,38.1,8.7,29.29,SSE,166,4.0,4.0,29,0.00,,,0.00,VWS V13.01,2013-03-29 14:14:00,
2013-03-29 10:19:00,38.8,9.3,29.29,SSE,166,4.0,4.0,29,0.00,,,0.00,VWS V13.01,2013-03-29 14:19:00,
2013-03-29 10:25:00,39.9,9.5,29.29,SSE,166,4.0,4.0,28,0.00,,,0.00,VWS V13.01,2013-03-29 14:25:00,
2013-03-29 10:30:00,40.5,8.3,29.29,SSE,166,4.0,4.0,26,0.00,,,0.00,VWS V13.01,2013-03-29 14:30:00,
2013-03-29 10:35:00,40.6,3.8,29.29,SSE,166,4.0,4.0,21,0.00,,,0.00,VWS V13.01,2013-03-29 14:35:00,
2013-03-29 10:40:00,40.6,3.8,29.29,SSE,166,4.0,4.0,21,0.00,,,0.00,VWS V13.01,2013-03-29 14:40:00,
2013-03-29 10:45:00,40.8,3.9,29.29,SSE,166,4.0,4.0,21,0.00,,,0.00,VWS V13.01,2013-03-29 14:45:00,
2013-03-29 10:50:00,41.4,4.4,29.29,SSE,166,4.0,4.0,21,0.00,,,0.00,VWS V13.01,2013-03-29 14:50:00,
2013-03-29 10:55:00,41.9,4.8,29.29,SSE,166,4.0,4.0,21,0.00,,,0.00,VWS V13.01,2013-03-29 14:55:00,
2013-03-29 11:00:00,42.1,5.0,29.29,SSE,166,4.0,4.0,21,0.00,,,0.00,VWS V13.01,2013-03-29 15:00:00,
2013-03-29 11:05:00,42.8,4.5,29.29,SSE,166,4.0,4.0,20,0.00,,,0.00,VWS V13.01,2013-03-29 15:05:00,
2013-03-29 11:10:00,43.7,5.3,29.29,SSE,166,4.0,4.0,20,0.00,,,0.00,VWS V13.01,2013-03-29 15:10:00,
2013-03-29 11:15:00,44.2,3.4,29.29,SSE,166,4.0,4.0,18,0.00,,,0.00,VWS V13.01,2013-03-29 15:15:00,
2013-03-29 11:20:00,44.8,2.6,29.29,SSE,166,4.0,4.0,17,0.00,,,0.00,VWS V13.01,2013-03-29 15:20:00,
2013-03-29 11:25:00,45.5,3.2,29.29,SSE,166,4.0,4.0,17,0.00,,,0.00,VWS V13.01,2013-03-29 15:25:00,
2013-03-29 11:30:00,46.6,4.1,29.29,SSE,166,4.0,4.0,17,0.00,,,0.00,VWS V13.01,2013-03-29 15:30:00,
2013-03-29 11:35:00,47.7,5.0,29.29,SSE,166,4.0,4.0,17,0.00,,,0.00,VWS V13.01,2013-03-29 15:35:00,
2013-03-29 11:40:00,48.6,4.4,29.29,SSE,166,4.0,4.0,16,0.00,,,0.00,VWS V13.01,2013-03-29 15:40:00,
2013-03-29 11:45:00,48.9,4.7,29.29,SSE,166,4.0,4.0,16,0.00,,,0.00,VWS V13.01,2013-03-29 15:45:00,
2013-03-29 11:50:00,49.5,5.2,29.29,SSE,166,4.0,4.0,16,0.00,,,0.00,VWS V13.01,2013-03-29 15:50:00,
2013-03-29 11:55:00,50.4,3.0,29.29,SSE,166,4.0,4.0,14,0.00,,,0.00,VWS V13.01,2013-03-29 15:55:00,
2013-03-29 12:00:00,50.7,3.3,29.29,SSE,166,4.0,4.0,14,0.00,,,0.00,VWS V13.01,2013-03-29 16:00:00,
2013-03-29 12:05:00,50.9,3.4,29.29,SSE,166,4.0,4.0,14,0.00,,,0.00,VWS V13.01,2013-03-29 16:05:00,
2013-03-29 12:10:00,51.3,3.7,29.29,SSE,166,4.0,4.0,14,0.00,,,0.00,VWS V13.01,2013-03-29 16:10:00,
2013-03-29 12:15:00,51.4,3.8,29.29,SSE,166,4.0,4.0,14,0.00,,,0.00,VWS V13.01,2013-03-29 16:15:00,
2013-03-29 12:20:00,52.0,2.7,29.29,SSE,166,4.0,4.0,13,0.00,,,0.00,VWS V13.01,2013-03-29 16:20:00,
2013-03-29 12:25:00,52.2,2.8,29.29,SSE,166,4.0,4.0,13,0.00,,,0.00,VWS V13.01,2013-03-29 16:25:00,
2013-03-29 12:30:00,52.5,3.1,29.29,SSE,166,4.0,4.0,13,0.00,,,0.00,VWS V13.01,2013-03-29 16:30:00,
2013-03-29 12:35:00,53.2,3.7,29.29,SSE,166,4.0,4.0,13,0.00,,,0.00,VWS V13.01,2013-03-29 16:35:00,
2013-03-29 12:40:00,53.8,4.1,29.29,SSE,166,4.0,4.0,13,0.00,,,0.00,VWS V13.01,2013-03-29 16:40:00,
2013-03-29 12:45:00,53.8,4.1,29.29,SSE,166,4.0,4.0,13,0.00,,,0.00,VWS V13.01,2013-03-29 16:45:00,
2013-03-29 12:50:00,54.0,4.2,29.29,SSE,166,4.0,4.0,13,0.00,,,0.00,VWS V13.01,2013-03-29 16:50:00,
2013-03-29 12:55:00,53.8,4.1,29.29,SSE,166,4.0,4.0,13,0.00,,,0.00,VWS V13.01,2013-03-29 16:55:00,
2013-03-29 13:00:00,54.0,4.2,29.29,SSE,166,4.0,4.0,13,0.00,,,0.00,VWS V13.01,2013-03-29 17:00:00,
2013-03-29 13:05:00,54.3,4.5,29.29,SSE,166,4.0,4.0,13,0.00,,,0.00,VWS V13.01,2013-03-29 17:05:00,
2013-03-29 13:10:00,54.5,4.7,29.29,SSE,166,4.0,4.0,13,0.00,,,0.00,VWS V13.01,2013-03-29 17:10:00,
2013-03-29 13:15:00,54.7,4.8,29.29,SSE,166,4.0,4.0,13,0.00,,,0.00,VWS V13.01,2013-03-29 17:15:00,
2013-03-29 13:20:00,54.5,4.7,29.29,SSE,166,4.0,4.0,13,0.00,,,0.00,VWS V13.01,2013-03-29 17:20:00,
2013-03-29 13:25:00,54.5,4.7,29.29,SSE,166,4.0,4.0,13,0.00,,,0.00,VWS V13.01,2013-03-29 17:25:00,
2013-03-29 13:30:00,54.9,5.0,29.29,SSE,166,4.0,4.0,13,0.00,,,0.00,VWS V13.01,2013-03-29 17:30:00,
2013-03-29 13:35:00,55.0,5.1,29.29,SSE,166,4.0,4.0,13,0.00,,,0.00,VWS V13.01,2013-03-29 17:35:00,
2013-03-29 13:40:00,55.6,3.8,29.29,SSE,166,4.0,4.0,12,0.00,,,0.00,VWS V13.01,2013-03-29 17:40:00,
2013-03-29 13:45:00,55.8,3.9,29.29,SSE,166,4.0,4.0,12,0.00,,,0.00,VWS V13.01,2013-03-29 17:45:00,
2013-03-29 13:50:00,55.9,4.1,29.29,SSE,166,4.0,4.0,12,0.00,,,0.00,VWS V13.01,2013-03-29 17:50:00,
2013-03-29 13:55:00,55.6,3.8,29.29,SSE,166,4.0,4.0,12,0.00,,,0.00,VWS V13.01,2013-03-29 17:55:00,
2013-03-29 14:00:00,55.9,4.1,29.29,SSE,166,4.0,4.0,12,0.00,,,0.00,VWS V13.01,2013-03-29 18:00:00,
2013-03-29 14:05:00,55.8,3.9,29.29,SSE,166,4.0,4.0,12,0.00,,,0.00,VWS V13.01,2013-03-29 18:05:00,
2013-03-29 14:10:00,56.3,4.4,29.29,SSE,166,4.0,4.0,12,0.00,,,0.00,VWS V13.01,2013-03-29 18:10:00,
2013-03-29 14:15:00,56.8,4.8,29.29,SSE,166,4.0,4.0,12,0.00,,,0.00,VWS V13.01,2013-03-29 18:15:00,
2013-03-29 14:20:00,56.5,4.5,29.29,SSE,166,4.0,4.0,12,0.00,,,0.00,VWS V13.01,2013-03-29 18:20:00,
2013-03-29 14:25:00,56.3,4.4,29.29,SSE,166,4.0,4.0,12,0.00,,,0.00,VWS V13.01,2013-03-29 18:25:00,
2013-03-29 14:30:00,56.1,4.2,29.29,SSE,166,4.0,4.0,12,0.00,,,0.00,VWS V13.01,2013-03-29 18:30:00,
2013-03-29 14:35:00,56.3,4.4,29.29,SSE,166,4.0,4.0,12,0.00,,,0.00,VWS V13.01,2013-03-29 18:35:00,
2013-03-29 14:40:00,56.5,4.5,29.29,SSE,166,4.0,4.0,12,0.00,,,0.00,VWS V13.01,2013-03-29 18:40:00,
2013-03-29 14:45:00,57.0,4.9,29.29,SSE,166,4.0,4.0,12,0.00,,,0.00,VWS V13.01,2013-03-29 18:45:00,
2013-03-29 14:50:00,57.2,5.1,29.29,SSE,166,4.0,4.0,12,0.00,,,0.00,VWS V13.01,2013-03-29 18:50:00,
2013-03-29 14:55:00,56.3,4.4,29.29,SSE,166,4.0,4.0,12,0.00,,,0.00,VWS V13.01,2013-03-29 18:55:00,
2013-03-29 15:00:00,56.1,4.2,29.29,SSE,166,4.0,4.0,12,0.00,,,0.00,VWS V13.01,2013-03-29 19:00:00,
2013-03-29 15:05:00,56.3,4.4,29.29,SSE,166,4.0,4.0,12,0.00,,,0.00,VWS V13.01,2013-03-29 19:05:00,
2013-03-29 15:10:00,56.8,4.8,29.29,SSE,166,4.0,4.0,12,0.00,,,0.00,VWS V13.01,2013-03-29 19:10:00,
2013-03-29 15:15:00,56.7,4.6,29.29,SSE,166,4.0,4.0,12,0.00,,,0.00,VWS V13.01,2013-03-29 19:15:00,
2013-03-29 15:20:00,56.5,4.5,29.29,SSE,166,4.0,4.0,12,0.00,,,0.00,VWS V13.01,2013-03-29 19:20:00,
2013-03-29 15:25:00,55.9,4.1,29.29,SSE,166,4.0,4.0,12,0.00,,,0.00,VWS V13.01,2013-03-29 19:25:00,
2013-03-29 15:30:00,55.6,3.8,29.29,SSE,166,4.0,4.0,12,0.00,,,0.00,VWS V13.01,2013-03-29 19:30:00,
2013-03-29 15:35:00,55.4,3.7,29.29,SSE,166,4.0,4.0,12,0.00,,,0.00,VWS V13.01,2013-03-29 19:35:00,
2013-03-29 15:40:00,55.2,5.2,29.29,SSE,166,4.0,4.0,13,0.00,,,0.00,VWS V13.01,2013-03-29 19:40:00,
2013-03-29 15:45:00,55.4,3.7,29.29,SSE,166,4.0,4.0,12,0.00,,,0.00,VWS V13.01,2013-03-29 19:45:00,
2013-03-29 15:50:00,55.9,4.1,29.29,SSE,166,4.0,4.0,12,0.00,,,0.00,VWS V13.01,2013-03-29 19:50:00,
2013-03-29 15:55:00,55.9,4.1,29.29,SSE,166,4.0,4.0,12,0.00,,,0.00,VWS V13.01,2013-03-29 19:55:00,
2013-03-29 16:00:00,55.9,4.1,29.29,SSE,166,4.0,4.0,12,0.00,,,0.00,VWS V13.01,2013-03-29 20:00:00,
2013-03-29 16:05:00,56.3,4.4,29.29,SSE,166,4.0,4.0,12,0.00,,,0.00,VWS V13.01,2013-03-29 20:05:00,
2013-03-29 16:10:00,56.3,4.4,29.29,SSE,166,4.0,4.0,12,0.00,,,0.00,VWS V13.01,2013-03-29 20:10:00,
2013-03-29 16:15:00,55.9,4.1,29.29,SSE,166,4.0,4.0,12,0.00,,,0.00,VWS V13.01,2013-03-29 20:15:00,
2013-03-29 16:20:00,55.2,5.2,29.29,SSE,166,4.0,4.0,13,0.00,,,0.00,VWS V13.01,2013-03-29 20:20:00,
2013-03-29 16:28:00,55.0,5.1,29.29,SSE,166,4.0,4.0,13,0.00,,,0.00,VWS V13.01,2013-03-29 20:28:00,
2013-03-29 16:33:00,55.0,5.1,29.29,SSE,166,4.0,4.0,13,0.00,,,0.00,VWS V13.01,2013-03-29 20:33:00,
2013-03-29 16:38:00,54.9,5.0,29.29,SSE,166,4.0,4.0,13,0.00,,,0.00,VWS V13.01,2013-03-29 20:38:00,
2013-03-29 16:43:00,55.2,5.2,29.29,SSE,166,4.0,4.0,13,0.00,,,0.00,VWS V13.01,2013-03-29 20:43:00,
2013-03-29 16:48:00,55.0,5.1,29.29,SSE,166,4.0,4.0,13,0.00,,,0.00,VWS V13.01,2013-03-29 20:48:00,
2013-03-29 16:53:00,54.9,5.0,29.29,SSE,166,4.0,4.0,13,0.00,,,0.00,VWS V13.01,2013-03-29 20:53:00,
2013-03-29 16:58:00,54.7,4.8,29.29,SSE,166,4.0,4.0,13,0.00,,,0.00,VWS V13.01,2013-03-29 20:58:00,
2013-03-29 17:03:00,54.3,4.5,29.29,SSE,166,4.0,4.0,13,0.00,,,0.00,VWS V13.01,2013-03-29 21:03:00,
2013-03-29 17:08:00,54.0,4.2,29.29,SSE,166,4.0,4.0,13,0.00,,,0.00,VWS V13.01,2013-03-29 21:08:00,
2013-03-29 17:13:00,53.8,7.2,29.29,SSE,166,4.0,4.0,15,0.00,,,0.00,VWS V13.01,2013-03-29 21:13:00,
2013-03-29 17:18:00,53.6,7.1,29.29,SSE,166,4.0,4.0,15,0.00,,,0.00,VWS V13.01,2013-03-29 21:18:00,
2013-03-29 17:23:00,53.8,7.2,29.29,SSE,166,4.0,4.0,15,0.00,,,0.00,VWS V13.01,2013-03-29 21:23:00,
2013-03-29 17:28:00,53.8,7.2,29.29,SSE,166,4.0,4.0,15,0.00,,,0.00,VWS V13.01,2013-03-29 21:28:00,
2013-03-29 17:33:00,53.6,7.1,29.29,SSE,166,4.0,4.0,15,0.00,,,0.00,VWS V13.01,2013-03-29 21:33:00,
2013-03-29 17:38:00,53.6,7.1,29.29,SSE,166,4.0,4.0,15,0.00,,,0.00,VWS V13.01,2013-03-29 21:38:00,
2013-03-29 17:43:00,53.8,7.2,29.29,SSE,166,4.0,4.0,15,0.00,,,0.00,VWS V13.01,2013-03-29 21:43:00,
2013-03-29 17:48:00,53.8,7.2,29.29,SSE,166,4.0,4.0,15,0.00,,,0.00,VWS V13.01,2013-03-29 21:48:00,
2013-03-29 17:53:00,53.8,7.2,29.29,SSE,166,4.0,4.0,15,0.00,,,0.00,VWS V13.01,2013-03-29 21:53:00,
2013-03-29 17:58:00,53.6,7.1,29.29,SSE,166,4.0,4.0,15,0.00,,,0.00,VWS V13.01,2013-03-29 21:58:00,
2013-03-29 18:03:00,53.4,8.4,29.29,SSE,166,4.0,4.0,16,0.00,,,0.00,VWS V13.01,2013-03-29 22:03:00,
2013-03-29 18:08:00,53.1,8.1,29.29,SSE,166,4.0,4.0,16,0.00,,,0.00,VWS V13.01,2013-03-29 22:08:00,
2013-03-29 18:13:00,53.1,8.1,29.29,SSE,166,4.0,4.0,16,0.00,,,0.00,VWS V13.01,2013-03-29 22:13:00,
2013-03-29 18:18:00,53.1,8.1,29.29,SSE,166,4.0,4.0,16,0.00,,,0.00,VWS V13.01,2013-03-29 22:18:00,
2013-03-29 18:23:00,52.9,7.9,29.29,SSE,166,4.0,4.0,16,0.00,,,0.00,VWS V13.01,2013-03-29 22:23:00,
2013-03-29 18:28:00,52.7,7.8,29.29,SSE,166,4.0,4.0,16,0.00,,,0.00,VWS V13.01,2013-03-29 22:28:00,
2013-03-29 18:33:00,52.7,7.8,29.29,SSE,166,4.0,4.0,16,0.00,,,0.00,VWS V13.01,2013-03-29 22:33:00,
2013-03-29 18:38:00,52.5,7.6,29.29,SSE,166,4.0,4.0,16,0.00,,,0.00,VWS V13.01,2013-03-29 22:38:00,
2013-03-29 18:43:00,52.5,7.6,29.29,SSE,166,4.0,4.0,16,0.00,,,0.00,VWS V13.01,2013-03-29 22:43:00,
2013-03-29 18:48:00,52.3,7.5,29.29,SSE,166,4.0,4.0,16,0.00,,,0.00,VWS V13.01,2013-03-29 22:48:00,
2013-03-29 18:54:00,52.2,7.3,29.29,SSE,166,4.0,4.0,16,0.00,,,0.00,VWS V13.01,2013-03-29 22:54:00,
2013-03-29 18:59:00,51.8,7.1,29.29,SSE,166,4.0,4.0,16,0.00,,,0.00,VWS V13.01,2013-03-29 22:59:00,
2013-03-29 19:04:00,51.6,6.9,29.29,SSE,166,4.0,4.0,16,0.00,,,0.00,VWS V13.01,2013-03-29 23:04:00,
2013-03-29 19:09:00,51.4,6.8,29.29,SSE,166,4.0,4.0,16,0.00,,,0.00,VWS V13.01,2013-03-29 23:09:00,
2013-03-29 19:14:00,51.3,6.6,29.29,SSE,166,4.0,4.0,16,0.00,,,0.00,VWS V13.01,2013-03-29 23:14:00,
2013-03-29 19:19:00,51.1,6.5,29.29,SSE,166,4.0,4.0,16,0.00,,,0.00,VWS V13.01,2013-03-29 23:19:00,
2013-03-29 19:24:00,50.9,6.3,29.29,SSE,166,4.0,4.0,16,0.00,,,0.00,VWS V13.01,2013-03-29 23:24:00,
2013-03-29 19:29:00,50.7,6.2,29.29,SSE,166,4.0,4.0,16,0.00,,,0.00,VWS V13.01,2013-03-29 23:29:00,
2013-03-29 19:34:00,50.7,6.2,29.29,SSE,166,4.0,4.0,16,0.00,,,0.00,VWS V13.01,2013-03-29 23:34:00,
2013-03-29 19:39:00,50.5,6.0,29.29,SSE,166,4.0,4.0,16,0.00,,,0.00,VWS V13.01,2013-03-29 23:39:00,
2013-03-29 19:44:00,50.4,5.9,29.29,SSE,166,4.0,4.0,16,0.00,,,0.00,VWS V13.01,2013-03-29 23:44:00,
2013-03-29 19:49:00,50.2,5.7,29.29,SSE,166,4.0,4.0,16,0.00,,,0.00,VWS V13.01,2013-03-29 23:49:00,
2013-03-29 19:54:00,50.2,5.7,29.29,SSE,166,4.0,4.0,16,0.00,,,0.00,VWS V13.01,2013-03-29 23:54:00,
2013-03-29 19:59:00,50.0,5.6,29.29,SSE,166,4.0,4.0,16,0.00,,,0.00,VWS V13.01,2013-03-29 23:59:00,
2013-03-29 20:04:00,49.8,5.4,29.29,SSE,166,4.0,4.0,16,0.00,,,0.00,VWS V13.01,2013-03-30 00:04:00,
2013-03-29 20:09:00,49.6,5.3,29.29,SSE,166,4.0,4.0,16,0.00,,,0.00,VWS V13.01,2013-03-30 00:09:00,
2013-03-29 20:14:00,49.5,5.2,29.29,SSE,166,4.0,4.0,16,0.00,,,0.00,VWS V13.01,2013-03-30 00:14:00,
2013-03-29 20:19:00,49.5,5.2,29.29,SSE,166,4.0,4.0,16,0.00,,,0.00,VWS V13.01,2013-03-30 00:19:00,
2013-03-29 20:24:00,49.3,5.0,29.29,SSE,166,4.0,4.0,16,0.00,,,0.00,VWS V13.01,2013-03-30 00:24:00,
2013-03-29 20:29:00,49.1,4.9,29.29,SSE,166,4.0,4.0,16,0.00,,,0.00,VWS V13.01,2013-03-30 00:29:00,
2013-03-29 20:34:00,48.9,4.7,29.29,SSE,166,4.0,4.0,16,0.00,,,0.00,VWS V13.01,2013-03-30 00:34:00,
2013-03-29 20:39:00,48.7,8.3,29.29,SSE,166,4.0,4.0,19,0.00,,,0.00,VWS V13.01,2013-03-30 00:39:00,
2013-03-29 20:44:00,48.7,8.3,29.29,SSE,166,4.0,4.0,19,0.00,,,0.00,VWS V13.01,2013-03-30 00:44:00,
2013-03-29 20:49:00,48.6,8.2,29.29,SSE,166,4.0,4.0,19,0.00,,,0.00,VWS V13.01,2013-03-30 00:49:00,
2013-03-29 20:54:00,48.4,8.0,29.29,SSE,166,4.0,4.0,19,0.00,,,0.00,VWS V13.01,2013-03-30 00:54:00,
2013-03-29 20:59:00,48.2,7.9,29.29,SSE,166,4.0,4.0,19,0.00,,,0.00,VWS V13.01,2013-03-30 00:59:00,
2013-03-29 21:04:00,48.0,7.7,29.29,SSE,166,4.0,4.0,19,0.00,,,0.00,VWS V13.01,2013-03-30 01:04:00,
2013-03-29 21:09:00,47.8,10.9,29.29,SSE,166,4.0,4.0,22,0.00,,,0.00,VWS V13.01,2013-03-30 01:09:00,
2013-03-29 21:14:00,47.7,10.7,29.29,SSE,166,4.0,4.0,22,0.00,,,0.00,VWS V13.01,2013-03-30 01:14:00,
2013-03-29 21:21:00,47.3,12.4,29.29,SSE,166,4.0,4.0,24,0.00,,,0.00,VWS V13.01,2013-03-30 01:21:00,
2013-03-29 21:32:00,46.8,11.9,29.29,SSE,166,4.0,4.0,24,0.00,,,0.00,VWS V13.01,2013-03-30 01:32:00,
2013-03-29 21:37:00,46.6,14.4,29.29,SSE,166,4.0,4.0,27,0.00,,,0.00,VWS V13.01,2013-03-30 01:37:00,
2013-03-29 21:42:00,46.4,14.2,29.29,SSE,166,4.0,4.0,27,0.00,,,0.00,VWS V13.01,2013-03-30 01:42:00,
2013-03-29 21:49:00,46.8,15.4,29.29,SSE,166,4.0,4.0,28,0.00,,,0.00,VWS V13.01,2013-03-30 01:49:00,
2013-03-29 21:54:00,46.8,14.6,29.29,SSE,166,4.0,4.0,27,0.00,,,0.00,VWS V13.01,2013-03-30 01:54:00,
2013-03-29 21:59:00,46.8,14.6,29.29,SSE,166,4.0,4.0,27,0.00,,,0.00,VWS V13.01,2013-03-30 01:59:00,
2013-03-29 22:04:00,46.8,14.6,29.29,SSE,166,4.0,4.0,27,0.00,,,0.00,VWS V13.01,2013-03-30 02:04:00,
2013-03-29 22:10:00,46.0,14.8,29.29,SSE,166,4.0,4.0,28,0.00,,,0.00,VWS V13.01,2013-03-30 02:10:00,
2013-03-29 22:14:00,45.9,16.2,29.29,SSE,166,4.0,4.0,30,0.00,,,0.00,VWS V13.01,2013-03-30 02:14:00,
2013-03-29 22:19:00,45.9,16.2,29.29,SSE,166,4.0,4.0,30,0.00,,,0.00,VWS V13.01,2013-03-30 02:19:00,
2013-03-29 22:25:00,46.0,16.4,29.29,SSE,166,4.0,4.0,30,0.00,,,0.00,VWS V13.01,2013-03-30 02:25:00,
2013-03-29 22:30:00,45.9,15.4,29.29,SSE,166,4.0,4.0,29,0.00,,,0.00,VWS V13.01,2013-03-30 02:30:00,
2013-03-29 22:35:00,45.3,14.9,29.29,SSE,166,4.0,4.0,29,0.00,,,0.00,VWS V13.01,2013-03-30 02:35:00,
2013-03-29 22:40:00,44.2,14.0,29.29,SSE,166,4.0,4.0,29,0.00,,,0.00,VWS V13.01,2013-03-30 02:40:00,
2013-03-29 22:45:00,43.7,13.5,29.29,SSE,166,4.0,4.0,29,0.00,,,0.00,VWS V13.01,2013-03-30 02:45:00,
2013-03-29 22:50:00,43.2,13.8,29.29,SSE,166,4.0,4.0,30,0.00,,,0.00,VWS V13.01,2013-03-30 02:50:00,
2013-03-29 22:55:00,42.6,14.1,29.29,SSE,166,4.0,4.0,31,0.00,,,0.00,VWS V13.01,2013-03-30 02:55:00,
2013-03-29 23:00:00,42.4,16.1,29.29,SSE,166,4.0,4.0,34,0.00,,,0.00,VWS V13.01,2013-03-30 03:00:00,
2013-03-29 23:05:00,42.3,15.9,29.29,SSE,166,4.0,4.0,34,0.00,,,0.00,VWS V13.01,2013-03-30 03:05:00,
2013-03-29 23:10:00,41.9,15.6,29.29,SSE,166,4.0,4.0,34,0.00,,,0.00,VWS V13.01,2013-03-30 03:10:00,
2013-03-29 23:15:00,41.5,17.8,29.29,SSE,166,4.0,4.0,38,0.00,,,0.00,VWS V13.01,2013-03-30 03:15:00,
2013-03-29 23:20:00,41.7,19.8,29.29,SSE,166,4.0,4.0,41,0.00,,,0.00,VWS V13.01,2013-03-30 03:20:00,
2013-03-29 23:25:00,42.1,20.1,29.29,SSE,166,4.0,4.0,41,0.00,,,0.00,VWS V13.01,2013-03-30 03:25:00,
2013-03-29 23:30:00,41.9,18.8,29.29,SSE,166,4.0,4.0,39,0.00,,,0.00,VWS V13.01,2013-03-30 03:30:00,
2013-03-29 23:35:00,41.4,18.3,29.29,SSE,166,4.0,4.0,39,0.00,,,0.00,VWS V13.01,2013-03-30 03:35:00,
2013-03-29 23:40:00,41.2,18.1,29.29,SSE,166,4.0,4.0,39,0.00,,,0.00,VWS V13.01,2013-03-30 03:40:00,
2013-03-29 23:45:00,40.8,17.8,29.29,SSE,166,4.0,4.0,39,0.00,,,0.00,VWS V13.01,2013-03-30 03:45:00,
2013-03-29 23:50:00,40.5,17.5,29.29,SSE,166,4.0,4.0,39,0.00,,,0.00,VWS V13.01,2013-03-30 03:50:00,
2013-03-29 23:55:00,40.5,17.5,29.29,SSE,166,4.0,4.0,39,0.00,,,0.00,VWS V13.01,2013-03-30 03:55:00,